EW4498 Fredensborg DK current weather conditions

sailwx.info

Wind from 101 at 1 knots gusting 7

Air temperature 26.1° C
Dewpoint 19.5° C

Last reported at 2020-Aug-10 15:02 UTC.
Time now 2020-Aug-10 15:58 UTC

Location: N 55°59' E 012°24'.
View on Google Maps.

See reports from other nearby stations

  
Tides and Currents Weather Stations Pressure Air Temp Water Temp Dewpoint Dewpoint Depression Visibility Wind Speed Wind Dir Waves Ship Positions
date/time (UTC)wind fromknots sea level pressurealtimeterstation pressurevisibilityair tempwater tempwave heightnotes
2020-Aug-10 15:02 101 1 gusting 7 26.1
2020-Aug-10 14:46 107 2 gusting 6 26.7
2020-Aug-10 14:31 131 1 gusting 9 26.7
2020-Aug-10 14:16 189 1 gusting 6 27.2
2020-Aug-10 14:02 101 2 gusting 10 27.2
2020-Aug-10 13:46 153 3 gusting 7 26.7
2020-Aug-10 13:31 123 0 gusting 3 25.6
2020-Aug-10 13:16 192 1 gusting 5 25.6
2020-Aug-10 13:01 137 0 gusting 5 25.6
2020-Aug-10 12:46 116 0 gusting 6 25.0
2020-Aug-10 12:30 131 25.0
2020-Aug-10 12:16 053 0 gusting 4 25.0
2020-Aug-10 12:01 021 0 gusting 4 24.4
2020-Aug-10 11:47 027 1 gusting 5 25.0
2020-Aug-10 11:31 342 0 gusting 4 25.6
2020-Aug-10 11:16 142 1 gusting 6 26.7
2020-Aug-10 11:00 056 27.2
2020-Aug-10 10:45 305 0 gusting 5 27.2
2020-Aug-10 10:30 119 0 gusting 3 27.2
2020-Aug-10 10:16 092 26.7
2020-Aug-10 10:01 147 1 gusting 5 26.7
2020-Aug-10 09:45 139 1 gusting 6 26.1
2020-Aug-10 09:30 085 1 gusting 7 26.1
2020-Aug-10 09:15 105 2 gusting 10 26.7
2020-Aug-10 09:00 114 1 gusting 7 26.1
2020-Aug-10 08:45 116 1 gusting 6 25.6
2020-Aug-10 08:30 100 2 gusting 7 25.6
2020-Aug-10 08:15 135 1 gusting 6 24.4
2020-Aug-10 08:00 110 3 gusting 8 24.4
2020-Aug-10 07:45 115 0 gusting 6 24.4
2020-Aug-10 07:32 107 0 gusting 5 23.9
2020-Aug-10 07:17 121 23.3
2020-Aug-10 07:01 049 22.8
2020-Aug-10 06:47 124 21.7
2020-Aug-10 06:31 032 0 gusting 3 20.6
2020-Aug-10 06:16 112 0 gusting 4 20.0
2020-Aug-10 06:00 350 19.4
2020-Aug-10 05:45 036 18.9
2020-Aug-10 05:31 018 18.3
2020-Aug-10 05:16 017 18.3
2020-Aug-10 05:00 017 18.3
2020-Aug-10 04:45 017 17.8
2020-Aug-10 04:30 017 17.8
2020-Aug-10 04:16 328 17.8
2020-Aug-10 04:00 328 0 gusting 1 17.2
2020-Aug-10 03:45 332 17.2
2020-Aug-10 03:30 332 17.2
2020-Aug-10 03:15 332 17.8
2020-Aug-10 03:00 332 17.8
2020-Aug-10 02:45 332 17.8
2020-Aug-10 02:30 332 18.3
2020-Aug-10 02:15 332 18.9
2020-Aug-10 02:00 360 18.9
2020-Aug-10 01:45 005 18.9
2020-Aug-10 01:30 020 18.9
2020-Aug-10 01:15 051 0 gusting 3 18.9
2020-Aug-10 01:00 348 18.9
2020-Aug-10 00:45 315 18.9
2020-Aug-10 00:31 313 0 gusting 2 18.9
2020-Aug-10 00:17 320 19.4
2020-Aug-10 00:02 346 19.4
2020-Aug-09 23:47 317 19.4
2020-Aug-09 23:32 022 0 gusting 3 19.4
2020-Aug-09 23:16 355 19.4
2020-Aug-09 23:01 336 19.4
2020-Aug-09 22:46 346 20.0
2020-Aug-09 22:31 335 20.0
2020-Aug-09 22:16 005 20.0
2020-Aug-09 22:01 012 20.0
2020-Aug-09 21:46 348 0 gusting 3 20.0
2020-Aug-09 21:32 017 0 gusting 2 20.6
2020-Aug-09 21:16 337 0 gusting 3 20.6
2020-Aug-09 20:46 344 0 gusting 4 20.6
2020-Aug-09 20:16 343 0 gusting 3 20.6
2020-Aug-09 20:00 031 0 gusting 4 20.6
2020-Aug-09 19:46 349 0 gusting 4 20.6
2020-Aug-09 19:31 327 0 gusting 4 21.1
2020-Aug-09 19:15 308 1 gusting 5 21.1
2020-Aug-09 19:00 015 0 gusting 4 21.7
2020-Aug-09 18:45 320 22.2
2020-Aug-09 18:30 344 0 gusting 5 22.8
2020-Aug-09 18:16 284 2 gusting 7 23.3
2020-Aug-09 18:01 011 0 gusting 4 23.9
2020-Aug-09 17:46 331 1 gusting 6 24.4
2020-Aug-09 17:30 042 1 gusting 5 24.4
2020-Aug-09 17:16 334 2 gusting 6 25.0
2020-Aug-09 17:00 005 3 gusting 8 25.6
2020-Aug-09 16:45 344 1 gusting 9 25.6
2020-Aug-09 16:30 018 1 gusting 6 26.7
2020-Aug-09 16:15 321 3 gusting 7 26.7
2020-Aug-09 16:00 355 2 gusting 8 26.7
2020-Aug-09 15:45 319 1 gusting 6 26.1
2020-Aug-09 15:30 300 2 gusting 6 26.7
2020-Aug-09 15:15 269 2 gusting 6 26.7
2020-Aug-09 15:00 327 2 gusting 10 27.2
2020-Aug-09 14:45 334 2 gusting 10 27.2
2020-Aug-09 14:30 355 1 gusting 8 27.8
2020-Aug-09 14:15 317 1 gusting 7 27.8
2020-Aug-09 14:00 270 2 gusting 9 27.2
2020-Aug-09 13:45 025 4 gusting 9 27.8
2020-Aug-09 13:30 168 3 gusting 9 27.8
2020-Aug-09 13:15 288 2 gusting 7 28.3
2020-Aug-09 13:00 042 3 gusting 7 28.3
2020-Aug-09 12:46 291 2 gusting 9 28.3
2020-Aug-09 12:31 306 2 gusting 8 28.9
2020-Aug-09 12:16 333 1 gusting 8 28.9
2020-Aug-09 12:01 298 1 gusting 6 29.4
2020-Aug-09 11:47 058 2 gusting 5 28.9
2020-Aug-09 11:33 282 1 gusting 6 29.4
2020-Aug-09 11:17 336 3 gusting 6 28.9
2020-Aug-09 11:03 323 1 gusting 7 28.9
2020-Aug-09 10:46 283 3 gusting 7 28.9
2020-Aug-09 10:30 273 2 gusting 6 28.9
2020-Aug-09 10:16 005 1 gusting 5 28.3
2020-Aug-09 10:01 331 0 gusting 5 28.3
2020-Aug-09 09:45 265 0 gusting 5 27.8
2020-Aug-09 09:31 033 1 gusting 6 27.2
2020-Aug-09 09:15 282 2 gusting 6 26.7
2020-Aug-09 09:00 030 1 gusting 5 26.7
2020-Aug-09 08:45 299 0 gusting 3 26.1
2020-Aug-09 08:30 303 1 gusting 6 25.6
2020-Aug-09 08:15 005 0 gusting 5 25.0
2020-Aug-09 08:01 016 0 gusting 4 24.4
2020-Aug-09 07:45 360 0 gusting 5 23.9
2020-Aug-09 07:31 333 1 gusting 3 23.3
2020-Aug-09 07:16 022 1 gusting 5 22.8
2020-Aug-09 07:01 023 1 gusting 4 21.7
2020-Aug-09 06:45 307 0 gusting 4 21.1
2020-Aug-09 06:31 283 0 gusting 3 20.6
2020-Aug-09 06:16 042 0 gusting 5 20.0
2020-Aug-09 06:01 335 1 gusting 6 19.4
2020-Aug-09 05:46 024 0 gusting 4 18.3
2020-Aug-09 05:31 344 1 gusting 4 17.8
2020-Aug-09 05:15 281 16.1
2020-Aug-09 05:01 284 15.6
2020-Aug-09 04:47 302 15.6
2020-Aug-09 04:31 302 15.0
2020-Aug-09 04:16 302 14.4
2020-Aug-09 04:01 302 14.4
2020-Aug-09 03:46 302 14.4
2020-Aug-09 03:31 301 14.4
2020-Aug-09 03:15 302 14.4
2020-Aug-09 03:00 302 14.4
2020-Aug-09 02:46 301 14.4
2020-Aug-09 02:30 302 14.4
2020-Aug-09 02:15 302 14.4
2020-Aug-09 02:00 302 14.4
2020-Aug-09 01:45 302 14.4
2020-Aug-09 01:30 302 15.0
2020-Aug-09 01:15 302 15.0
2020-Aug-09 01:00 302 15.0
2020-Aug-09 00:45 302 15.0
2020-Aug-09 00:30 302 15.0
2020-Aug-09 00:15 302 15.6
2020-Aug-09 00:00 302 15.6
2020-Aug-08 23:45 302 16.1
2020-Aug-08 23:30 302 16.1
2020-Aug-08 23:15 302 16.1
2020-Aug-08 23:00 302 16.7
2020-Aug-08 22:47 302 17.2
2020-Aug-08 22:31 302 17.8
2020-Aug-08 22:17 302 17.8
2020-Aug-08 22:02 292 17.8
2020-Aug-08 21:48 292 17.8
2020-Aug-08 21:31 292 18.3
2020-Aug-08 21:17 321 18.3
2020-Aug-08 21:02 321 18.9
2020-Aug-08 20:46 321 18.9
2020-Aug-08 20:31 325 19.4
2020-Aug-08 20:16 325 19.4
2020-Aug-08 20:00 299 20.0
2020-Aug-08 19:45 299 20.0
2020-Aug-08 19:30 337 20.6
2020-Aug-08 19:15 340 21.1
2020-Aug-08 19:00 019 21.1
2020-Aug-08 18:45 283 0 gusting 3 21.7
2020-Aug-08 18:30 355 0 gusting 2 22.2
2020-Aug-08 18:15 005 22.8
2020-Aug-08 18:00 360 0 gusting 3 22.8
2020-Aug-08 17:45 015 23.3
2020-Aug-08 17:16 302 0 gusting 4 23.9
2020-Aug-08 17:00 339 1 gusting 6 23.9
2020-Aug-08 16:31 331 0 gusting 5 25.0
2020-Aug-08 16:02 288 1 gusting 3 26.1
2020-Aug-08 15:45 005 0 gusting 4 26.1
2020-Aug-08 15:17 017 1 gusting 3 27.8
2020-Aug-08 15:01 355 1 gusting 6 27.8